Torna al catalogo

IUE DEB

LostHEO
NORAD 33000·DEBRIS·🇺🇸 United States

Lanciato Jan 26, 1978 da Cape Canaveral Space Force Station

Loading…

Prossimi Passaggi (prossime 24 ore)

TLE

ObsoletoSource: Space-Track

Epoca: Jan 16, 2024, 14:12 UTC

1 33000U 78012D   24016.59218522 -.00000025  00000-0  00000+0 0  9998
2 33000  39.1397 292.0517 3087814 277.5914 296.1444  1.00380973 58534

Traccia IUE DEB in tempo reale con AllMySat

Download on the App Store